星链-1793 (STARLINK-1793 )

导读

STARLINK-1793是美国太空探索技术公司(SpaceX)星链星座中的一颗卫星,于2020年10月18日发射入轨,属于星链低轨互联网星座组网卫星,承担着为全球提供高速低延迟互联网接入服务的任务,星链系统在通信、导航等多个领域具有重要战略与商业价值。

Basic Information
目录编号:
46694
目录名称:
STARLINK-1793
国际标识:
2020-073AA
轨道中心:
EARTH
卫星名称:
星链-1793
卫星全名:
星链-1793 (STARLINK-1793 )
卫星状态:
已陨落 最后检测时间 2025-04-20
发射日期:
2020-10-18 UTC
国别 :
美国 (US)
星等 :
--
Orbit Information
数据来源 国际轨道数据
星历时间: 2025-04-20T10:37:54+0800
轨道信息已过期424天
半长轴: 6539.45km
偏心率: 0.0006704
轨道倾角: 53.035°
近地点辐角 329.561°
升交点赤经 198.698°
平近点角 103.422°
近地点: 156.93km
远地点: 165.7km
周期: 87.715分钟
每日圈数: 16.416892
Detailed Information
固有亮度:
5
最大亮度:
2.5
卫星平台:
Starlink V1.0
覆盖范围:
全球
运营商:
太空探索技术公司
运营商所在国:
美国
制造商(研发单位):
太空探索技术公司
制造商所在国:
美国
使用方式:
暂无
Satellite Introduction
星链(Starlink)计划是由太空探索技术公司(SpaceX)提出的一个巨型低轨卫星互联网星座项目,计划在2019年至2024年间在太空搭建由约1.2万颗卫星组成的“星链”网络,其中1584颗将部署在地球上空550千米处的近地轨道,并从2020年开始工作。该卫星仍在工作。